Weather in Kaunas

Lithuania     54°53′48″N   23°53′11″E
temp.,
°C
wind,
m/s
gust,
m/s
humid.,
%
clouds,
%
prec.,
mm/h
press.,
hPa
HPBL,
m
27 february, sat
sat2723:00+3w6118998 0.0 1017544
02:00+2wnw5119490 0.0 1018349
05:00+2wnw6129181 0.0 1017451
08:00+1nw5138840 0.0 1020538
11:00+3nnw7118132 0.0 1022782
14:00+5nnw7117024 0.0 10241208
17:00+4nnw5117544 0.0 1025790
20:00+1nw4108222 0.0 1027277
28 february, sun
sun2823:000nw49880 0.0 1028275
02:000wnw489022 0.0 1028282
05:00+1wnw498894 0.0 1027348
08:00+1w5118797 0.1 1026320
11:00+5wnw7137291 0.0 1024821
14:00+6nnw4108295 0.3 1024855
17:00+4nnw51190100 0.5 1024534
20:00+3nw389287 0.5 1027240
1 march, mon
mon123:00+1nw359477 0.0 1028112
02:00+1wnw359542 0.0 103094
05:000wnw35965 0.0 1029123
08:00+1wnw36956 0.0 1030160
11:00+6nw47780 0.0 1030440
14:00+8w47700 0.0 1030580
17:00+7wsw5117744 0.0 1028462
20:00+4w6158364 0.0 1027527
2 march, tue
tue223:00+2wnw6119426 0.0 1027417
02:00+1wnw499559 0.0 1028273
05:000w379515 0.0 1028149
08:00+1w359238 0.0 1029144
11:00+5w45780 0.0 1028274
14:00+8w57720 0.0 1028425
17:00+7w59780 0.0 1027429
20:00+4wnw59920 0.0 1028272
3 march, wed
wed323:00+2wnw479719 0.0 1029215
02:00+1wnw369524 0.0 1029163
05:00+1wnw359638 0.0 1028179
08:00+1w359738 0.0 1028207
11:00+2w239382 0.0 1028256
14:00+5wsw237788 0.0 1027457
17:00+5wsw34808 0.0 1024356
20:00+1w36934 0.0 1023183